Regional Weather Roundup
Issued by NWS

Home | Current Version | Previous Version | Graphics & Text | Print | Product List | Glossary On
Versions: 1 2 3 4 5 6 7 8 9 10 11 12 13 14 15 16 17 18 19 20 21 22 23 24 25 26 27 28 29 30 31 32 33 34 35 36 37 38 39 40 41 42 43 44 45 46 47 48 49 50
000
ASUS45 KSLC 291710
RWRUT

UTAH REGIONAL WEATHER ROUNDUP
NATIONAL WEATHER SERVICE SALT LAKE CITY UT
1100 AM MDT FRI AUG 29 2014

UTZ001>011-023>025-291800-

NORTHERN UTAH

CITY           SKY/WX    TMP DP  RH WIND       PRES   REMARKS
HILL AFB       SUNNY     72  47  41 E12       30.13S
LOGAN          SUNNY     70  51  51 N7        30.11F
OGDEN          SUNNY     74  45  35 SE3       30.11S
PROVO AIRPORT  PTSUNNY   73  48  40 E6        30.16S
SALT LAKE CITY MOSUNNY   77  44  30 SE12      30.09F
VERNAL         SUNNY     67  54  63 E5        30.21R
WENDOVER       SUNNY     73  39  29 E7        30.10R
HEBER CITY     SUNNY     61  46  59 CALM      30.22F
WEST JORDAN    SUNNY     75  54  46 SE14      30.13S

$$

UTZ012>022-026-027-291800-

SOUTHERN UTAH

CITY           SKY/WX    TMP DP  RH WIND       PRES   REMARKS
BRYCE CANYON   SUNNY     69  37  30 NW5       30.35S
CEDAR CITY     SUNNY     76  37  24 VRB5      30.19S
MILFORD        SUNNY     76  41  28 S12       30.15S
MOAB/CYNLANDS  SUNNY     76  48  37 E6        30.14S
PRICE          SUNNY     72  41  32 S5        30.23S
ST GEORGE      SUNNY     81  46  30 NW3       30.05S

$$

REGIONAL REPORTS     COLORADO/ARIZONA

CITY           SKY/WX    TMP DP  RH WIND       PRES   REMARKS
CRAIG, CO      SUNNY     68  49  50 W3        30.25S
GRAND JUNCTION SUNNY     71  50  47 CALM      30.19S
RIFLE          SUNNY     67  49  52 N5        30.23F
MONTROSE       MOSUNNY   68  48  48 VRB3      30.26F
CORTEZ         SUNNY     71  39  31 CALM      30.23F
PAGE, AZ       SUNNY     78  44  29 VRB3      30.13S
GRAND CANYON   SUNNY     75  34  22 VRB5      30.28F
KINGMAN        SUNNY     89  36  15 MISG      30.04S
FLAGSTAFF      SUNNY     72  38  29 NE6       30.31R

$$

REGIONAL REPORTS    NEVADA/IDAHO/WYOMING

CITY           SKY/WX    TMP DP  RH WIND       PRES   REMARKS
LAS VEGAS, NV  MOSUNNY   91  35  13 CALM      29.91S
ELY            SUNNY     76  33  21 S10       30.21S
ELKO           SUNNY     73  39  29 CALM      30.12F
POCATELLO, ID  SUNNY     75  45  34 CALM      30.10S
BURLEY         SUNNY     72  51  47 VRB5      30.07S
EVANSTON, WY   SUNNY     67  41  38 SW12      30.28S
ROCK SPRINGS   SUNNY     66  40  38 VRB3      30.26S

$$



USA.gov is the U.S. government's official web portal to all federal, state and local government web resources and services.